Regional Weather Roundup
Issued by NWS

Home | Current Version | Previous Version | Text Only | Print | Product List | Glossary Off
Versions: 1 2 3 4 5 6 7 8 9 10 11 12 13 14 15 16 17 18 19 20 21 22 23 24 25 26 27 28 29 30 31 32 33 34 35 36 37 38 39 40 41 42 43 44 45 46 47 48 49 50

000
ASUS43 KLOT 021200
RWRIL

ILLINOIS REGIONAL WEATHER ROUNDUP
NATIONAL WEATHER SERVICE CHICAGO/ROMEOVILLE IL
700 AM CDT TUE SEP 02 2014

NOTE: "FAIR" INDICATES FEW OR NO CLOUDS BELOW 12,000 FEET WITH NO
SIGNIFICANT WEATHER AND/OR OBSTRUCTIONS TO VISIBILITY.

* THESE STATIONS ARE NOT UNDER NWS QUALITY CONTROL. THEY ALSO MAY NOT
  REPORT WEATHER SUCH AS PRECIPITATION OR FOG.

ILZ001-002-007-009-015-016-024-021300-
NORTHWEST ILLINOIS

CITY           SKY/WX    TMP DP  RH WIND       PRES   REMARKS
MOLINE         FOG       61  60  97 CALM      29.89R VSB 1/4
6HR MIN TEMP:  60; 6HR MAX TEMP:  70;

STERLING*      CLOUDY    61  57  88 CALM      29.89R VSB<1/4
$$

ILZ003-004-008-010-011-017-018-021300-
NORTH CENTRAL ILLINOIS

CITY           SKY/WX    TMP DP  RH WIND       PRES   REMARKS
ROCKFORD       FOG       61  59  93 CALM      29.90F VSB 1/8
6HR MIN TEMP:  60; 6HR MAX TEMP:  68;

$$

ILZ005-006-012>014-019>023-021300-
NORTHEAST ILLINOIS

CITY           SKY/WX    TMP DP  RH WIND       PRES   REMARKS
CHICAGO-OHARE  MOCLDY    68  63  84 CALM      29.87S
6HR MIN TEMP:  67; 6HR MAX TEMP:  71; 6HR PCP:  0.02;

CHICAGO-MIDWAY MOCLDY    69  67  93 CALM      29.88R
6HR MIN TEMP:  69; 6HR MAX TEMP:  75;

AURORA         PTCLDY    64  61  90 CALM      29.88S FOG
6HR MIN TEMP:  62; 6HR MAX TEMP:  69; 6HR PCP: TRACE;

WAUKEGAN       PTCLDY    63  62  97 CALM      29.87R FOG
6HR MIN TEMP:  63; 6HR MAX TEMP:  68; 6HR PCP: TRACE;

DUPAGE AIRPORT PTCLDY    64  62  93 CALM      29.88R
6HR MIN TEMP:  64; 6HR MAX TEMP:  69; 6HR PCP: TRACE;

WHEELING       PTCLDY    68  64  87 CALM      29.89R FOG
6HR MIN TEMP:  67; 6HR MAX TEMP:  72;

NORTHERLY ISL    N/A     71  66  84 W5          N/A
$$

LMZ740>746-021300-
SOUTHERN LAKE MICHIGAN

STATION/POSITION SKY/WX   TEMP    WIND        PRES    VSBY  WAVE
                          AIR SEA DIR/SP/G                  HT/PER
                          (F)     (DEG/KT/KT) (MB)    (MI)  (FT/S)
SOUTHERN BUOY              69 69  290/  6/  8 1011.0F         1/ 3
WAUKEGAN HARBOR            66      CALM  /  4   N/A
HARRISON CRIB              70     310/  2/  3   N/A
BURNHAM HARBOR             71     250/  4/  7   N/A
CALUMET HARBOR             70     230/  3/  6 1010.6R
MICHIGAN CITY              69     190/  5/  6   N/A
MICHIGAN CITY 6N           71 72  220/  8/ 10   N/A           1/ 3
ST. JOSEPH                 71 72  250/  2/  4   N/A           1/ 3
$$

ILZ025>027-034>036-040-047-049-050-058-095>099-021300-
WEST-CENTRAL ILLINOIS

CITY           SKY/WX    TMP DP  RH WIND       PRES   REMARKS
QUINCY         CLOUDY    69  68  96 S5        29.91R
MACOMB*        CLOUDY    70  69  98 CALM      29.92R
$$

ILZ028>032-037-038-041>044-048-051>054-059>061-021300-
CENTRAL ILLINOIS

CITY           SKY/WX    TMP DP  RH WIND       PRES   REMARKS
DECATUR        CLOUDY    69  67  93 SW9       29.93R
PEORIA         LGT RAIN  72  68  87 SW6       29.90R FOG
6HR MIN TEMP:  71; 6HR MAX TEMP:  72; 6HR PCP: TRACE;

SPRINGFIELD    CLOUDY    70  68  93 W5        29.92R
6HR MIN TEMP:  70; 6HR MAX TEMP:  71; 6HR PCP:  0.10;

TAYLORVILLE    NOT AVBL
$$

ILZ033-039-045-046-055>057-062-063-021300-
EAST-CENTRAL ILLINOIS

CITY           SKY/WX    TMP DP  RH WIND       PRES   REMARKS
CHAMPAIGN      CLOUDY    68  66  93 SW9       29.92F
MATTOON        CLOUDY    67  66  97 S7        29.92R
$$

ILZ079-100>102-021300-
SOUTHWEST ILLINOIS

CITY           SKY/WX    TMP DP  RH WIND       PRES   REMARKS
CAHOKIA*       MOCLDY    70  68  94 S5        29.91S
$$

ILZ064>066-069>071-074>076-080>082-084>086-088>090-092>094-021300-
SOUTH-CENTRAL ILLINOIS

CITY           SKY/WX    TMP DP  RH WIND       PRES   REMARKS
CARBONDALE     CLOUDY    72  69  90 S6        29.95R
6HR MIN TEMP:  71; 6HR MAX TEMP:  79; 6HR PCP:  0.01;

MARION         CLOUDY    73  72  94 SE8       29.96R
MT. VERNON     CLOUDY    68  64  88 CALM      29.95S
$$

ILZ067-068-072-073-078-083-087-091-021300-
SOUTHEAST ILLINOIS

CITY           SKY/WX    TMP DP  RH WIND       PRES   REMARKS
LAWRENCEVILLE  LGT RAIN  68  67  96 S6        29.95R
ROBINSON*      LGT RAIN  69  68  98 S6        29.94F
$$

ABBREVIATIONS USED IN REMARKS
   TC - TEMPERATURE IN CELSIUS
  WCI - WIND CHILL INDEX
   HX - HEAT INDEX
  VSB - VISIBILITY
$$




USA.gov is the U.S. government's official web portal to all federal, state and local government web resources and services.